Blythe, CA

11:23 AM PDT on September 18, 2019 (GMT -0700)
Blythe

Weather History for KBLH - August, 2019

Change the Weather History Date:

Thursday, August 22, 2019

  Actual Average Record
Temperature  
Mean Temperature 96 °F -  
Max Temperature 109 °F 105 °F 115 °F (1972)
Min Temperature 82 °F 80 °F 68 °F (1989)
Cooling Degree Days 30    
Growing Degree Days 46 (Base 50)    
Moisture  
Dew Point 53 °F    
Average Humidity 24    
Maximum Humidity 38    
Minimum Humidity 13    
Precipitation  
Precipitation 0.00 in - - ()
Sea Level Pressure  
Sea Level Pressure 29.62 in    
Wind  
Wind Speed 10 mph (South)    
Max Wind Speed 17 mph    
Max Gust Speed 25 mph    
Visibility 10 miles    
Events      
Averages and records for this station are not official NWS values.
T = Trace of Precipitation, MM = Missing Value Source: NWS Daily Summary

Daily Weather History Graph

Daily Weather History Graph

Search for Another Location

Airport or City:

Astronomy

Aug. 22, 2019 Rise Set
Actual Time 6:05 AM PDT 7:17 PM PDT
Civil Twilight 5:39 AM PDT 7:42 PM PDT
Nautical Twilight 5:09 AM PDT 8:13 PM PDT
Astronomical Twilight 4:37 AM PDT 8:45 PM PDT
Moon 11:29 PM PDT (8/22) 12:26 PM PDT (8/22)
Length of Visible Light 14h 03m
Length of Day
13h 11m
Waning Gibbous, 58% of the Moon is Illuminated
Aug 22
Waning Gibbous
Aug 23
Last Quarter
Aug 30
New
Sep 5
First Quarter
Sep 13
Full

Hourly Weather History & Observations

Time (PDT) Temp. Heat Index Dew Point Humidity Pressure Visibility Wind Dir Wind Speed Gust Speed Precip Events Conditions
12:52 AM 93.0 °F - 36.0 °F 13% 29.61 in 10.0 mi SSW 5.8 mph - N/A   Clear
1:52 AM 91.0 °F - 35.1 °F 14% 29.60 in 10.0 mi South 8.1 mph - N/A   Clear
2:52 AM 91.9 °F - 37.9 °F 15% 29.60 in 10.0 mi South 13.8 mph - N/A   Clear
3:52 AM 86.0 °F - 41.0 °F 20% 29.61 in 10.0 mi SW 3.5 mph - N/A   Clear
4:52 AM 86.0 °F - 41.0 °F 20% 29.61 in 10.0 mi SW 4.6 mph - N/A   Clear
5:52 AM 82.9 °F - 48.0 °F 29% 29.62 in 10.0 mi South 4.6 mph - N/A   Clear
6:52 AM 87.1 °F - 51.1 °F 29% 29.66 in 10.0 mi SSW 5.8 mph - N/A   Clear
7:52 AM 91.0 °F 89.2 °F 55.9 °F 30% 29.68 in 10.0 mi South 13.8 mph - N/A   Clear
8:52 AM 93.0 °F 93.0 °F 61.0 °F 34% 29.68 in 10.0 mi South 16.1 mph 25.3 mph N/A   Clear
9:52 AM 96.1 °F 99.3 °F 66.0 °F 37% 29.69 in 10.0 mi South 16.1 mph - N/A   Clear
10:52 AM 99.0 °F 105.5 °F 69.1 °F 38% 29.68 in 10.0 mi South 16.1 mph - N/A   Clear
11:52 AM 102.0 °F 106.6 °F 66.0 °F 31% 29.66 in 10.0 mi South 16.1 mph - N/A   Clear
12:52 PM 105.1 °F 107.8 °F 63.0 °F 25% 29.65 in 10.0 mi SSE 17.3 mph 23.0 mph N/A   Clear
1:52 PM 107.1 °F 108.1 °F 59.0 °F 21% 29.62 in 10.0 mi South 13.8 mph - N/A   Clear
2:52 PM 109.0 °F 109.6 °F 57.9 °F 19% 29.58 in 10.0 mi SSE 12.7 mph 23.0 mph N/A   Clear
3:52 PM 109.0 °F 108.9 °F 57.0 °F 18% 29.56 in 10.0 mi SSE 17.3 mph - N/A   Clear
5:52 PM 107.1 °F 108.1 °F 59.0 °F 21% 29.55 in 10.0 mi South 10.4 mph - N/A   Clear
6:52 PM 108.0 °F - 46.0 °F 13% 29.55 in 10.0 mi SW 15.0 mph - N/A   Clear
7:52 PM 99.0 °F 97.3 °F 55.0 °F 23% 29.56 in 10.0 mi South 11.5 mph - N/A   Clear
8:52 PM 98.1 °F 96.8 °F 57.0 °F 25% 29.58 in 10.0 mi South 15.0 mph - N/A   Clear
9:52 PM 97.0 °F - 52.0 °F 22% 29.59 in 10.0 mi South 12.7 mph - N/A   Clear
10:52 PM 95.0 °F - 52.0 °F 23% 29.62 in 10.0 mi SSW 5.8 mph - N/A   Clear
11:52 PM 91.0 °F 90.2 °F 59.0 °F 34% 29.65 in 10.0 mi South 13.8 mph - N/A   Clear